SCP
0 1 1 1 0 0 0 0 0 0 0 0 0 0 0 0 0 0 0 0 0 0 0 0 0 0 0 0 0 0 0 0 0 0 0 0 0 0 0 0 0 0 0
1 1 1 1 1 0 0 0 0 0 0 0 0 0 0 0 0 0 0 0 0 0 0 0 0 0 0 0 0 0 0 0 0 0 0 0 0 0 0 0 0 0 0
1 1 1 1 1 1 0 0 0 0 0 0 0 0 0 0 0 0 0 0 0 0 0 0 0 0 0 0 0 0 0 0 0 0 0 0 0 0 0 0 0 0 0
1 1 1 1 1 1 1 0 0 0 0 0 0 0 0 0 0 0 0 0 0 0 0 0 0 0 0 0 0 0 0 0 0 0 0 0 0 0 0 0 0 0 0
1 1 1 1 1 1 1 1 0 0 0 0 0 0 0 0 0 0 0 0 0 0 0 0 0 0 0 0 0 0 0 0 0 0 0 0 0 0 0 0 0 0 0
1 1 1 1 1 1 1 1 1 0 0 0 0 0 0 0 0 0 0 0 0 0 0 0 0 0 0 0 0 0 0 0 0 0 0 0 0 0 0 0 0 0 0
1 1 1 1 1 1 1 1 1 1 1 0 0 0 0 0 0 0 0 0 0 0 0 0 0 0 0 0 0 0 0 0 0 0 0 0 0 0 0 0 0 0 0
1 1 1 1 1 1 1 1 1 1 1 1 0 0 0 0 0 0 0 0 0 0 0 0 0 0 0 0 0 0 0 0 0 0 0 0 0 0 0 0 0 0 0
0 1 1 1 1 1 1 1 1 1 1 1 0 0 0 0 0 0 0 0 0 0 0 0 0 0 0 0 0 0 0 0 0 0 0 0 0 0 0 0 0 0 0
0 1 1 1 1 1 1 1 1 1 1 1 0 0 0 0 0 0 0 0 0 0 0 0 0 0 0 0 0 0 0 0 0 0 0 0 0 0 0 0 0 0 0
0 1 1 1 1 1 1 1 1 1 1 1 0 0 0 0 0 0 0 0 0 0 0 0 0 0 0 0 0 0 0 0 0 0 0 0 0 0 0 0 0 0 0
0 1 1 1 0 0 1 1 1 1 1 0 0 0 0 0 0 0 0 0 0 0 0 0 0 0 0 0 0 0 0 0 0 0 0 0 0 0 0 0 0 0 0
0 1 1 0 0 1 1 1 1 1 1 0 0 0 0 0 0 0 0 0 0 0 0 0 0 0 0 0 0 0 0 0 0 0 0 0 0 0 0 0 0 0 0
0 0 0 0 0 1 1 1 1 1 1 1 0 0 0 0 0 0 0 0 0 0 0 0 0 0 0 0 0 0 0 0 0 0 0 0 0 0 0 0 0 0 0
0 0 0 0 0 0 0 1 1 1 1 1 0 0 0 0 0 0 0 0 0 0 0 0 0 0 0 0 0 0 0 0 0 0 0 0 0 0 0 0 0 0 0
0 0 0 0 0 0 0 0 1 1 1 1 0 0 0 0 0 0 0 0 0 0 0 0 0 0 0 0 0 0 0 0 0 0 0 0 0 0 0 0 0 0 0
0 0 0 0 0 0 0 0 0 1 1 0 0 0 0 0 0 0 0 0 0 0 0 0 0 0 0 0 0 0 0 0 0 0 0 0 0 0 0 0 0 0 0
0 0 0 0 0 0 0 0 0 1 1 0 0 0 0 0 0 0 0 0 0 0 0 0 0 0 0 0 0 0 0 0 0 0 0 0 0 0 0 0 0 0 0
0 0 0 0 0 0 0 0 0 0 0 0 0 0 0 0 0 0 0 0 0 0 0 0 0 0 0 0 0 0 0 0 0 0 0 0 0 0 0 0 0 0 0
0 0 0 0 0 0 0 0 0 0 0 0 0 0 0 0 0 0 0 0 0 0 0 0 0 0 0 0 0 0 0 0 0 0 0 0 0 0 0 0 0 0 0
0 0 0 0 0 0 0 0 0 0 0 0 0 0 0 0 0 0 0 0 0 0 0 0 0 0 0 0 0 0 0 0 0 0 0 0 0 0 0 0 0 0 0
0 0 0 0 0 0 0 0 0 0 0 0 0 0 0 0 0 0 0 0 0 0 0 0 0 0 0 0 0 0 0 0 0 0 0 0 0 0 0 0 0 0 0
0 0 0 0 0 0 0 0 0 0 0 0 0 0 0 0 0 0 0 0 0 0 0 0 0 0 0 0 0 0 0 0 0 0 0 0 0 0 0 0 0 0 0
0 0 0 0 0 0 0 0 0 0 0 0 0 0 0 0 0 0 0 0 0 0 0 0 0 0 0 0 0 0 0 0 0 0 0 0 0 0 0 0 0 0 0
0 0 0 0 0 0 0 0 0 0 0 0 0 0 0 0 0 0 0 0 0 0 0 0 0 0 0 0 0 0 0 0 0 0 0 0 0 0 0 0 0 0 0
0 0 0 0 0 0 0 0 0 0 0 0 0 0 0 0 0 0 0 0 0 0 0 0 0 0 0 0 0 0 0 0 0 0 0 0 0 0 0 0 0 0 0
Wind_Speed
11 11 12 12 11 11 11 12 10 9 8 5 5 4 4 3 3 3 4 5 5 5 5 4 4 3 3 3 4 3 3 2 2 3 2 2 2 1 0 1 1 2 2
11 13 13 13 14 13 13 12 12 11 10 7 5 3 3 3 2 2 3 4 5 5 5 5 4 4 4 4 3 3 2 2 2 3 2 1 2 2 1 0 2 2 2
16 16 16 15 14 14 14 13 12 11 10 8 5 4 3 2 2 2 2 3 5 5 5 5 4 4 4 4 4 4 4 3 1 1 3 3 2 1 1 1 1 1 1
13 14 15 16 17 15 13 12 12 11 10 10 9 8 6 5 5 4 3 3 4 5 5 5 5 5 4 4 4 4 3 4 2 1 1 2 3 2 0 1 1 0 1
14 16 17 17 15 14 13 12 11 11 11 10 11 10 6 5 4 4 5 4 3 4 5 5 5 5 4 4 4 4 4 3 3 3 2 2 1 2 2 1 1 1 1
13 13 12 12 11 12 12 12 12 11 11 11 11 11 10 8 7 6 6 4 3 2 4 5 5 5 4 4 4 4 4 3 3 3 3 3 3 2 2 2 1 1 1
12 12 13 14 14 14 14 13 14 12 12 12 11 10 10 11 10 9 8 6 4 3 5 5 5 4 4 4 4 4 4 4 4 3 2 2 2 2 3 3 2 1 1
11 13 15 15 15 15 15 15 15 13 13 12 11 9 9 7 6 8 7 7 5 5 5 5 5 5 5 5 4 3 3 3 3 3 3 2 2 2 3 3 3 2 0
9 11 12 13 13 14 15 15 15 12 13 13 11 10 9 8 8 7 7 6 5 5 6 6 6 5 5 5 5 3 3 4 3 3 3 2 2 2 2 2 3 4 2
7 8 10 11 11 11 11 12 12 13 12 12 11 10 9 9 8 8 8 7 7 6 7 6 6 6 5 5 5 4 4 4 3 2 3 2 1 2 2 2 2 2 3
8 8 8 9 8 8 10 11 11 10 9 10 10 9 9 9 9 9 9 8 7 7 8 7 7 6 6 5 5 4 5 5 4 3 4 3 3 2 2 2 2 2 2
5 7 8 8 9 9 10 11 11 11 10 10 10 10 9 10 10 9 9 8 8 8 8 7 7 7 6 6 6 6 5 5 5 4 4 3 3 3 2 2 2 2 2
5 5 7 8 9 8 9 10 10 10 10 10 10 10 10 11 11 10 9 9 9 8 8 8 8 7 7 7 6 6 5 5 5 5 6 5 5 3 3 3 2 2 2
5 6 6 6 7 7 8 9 9 9 9 10 11 11 11 11 10 9 9 9 9 9 9 8 8 7 7 7 6 6 5 5 5 5 5 5 6 5 5 4 3 3 2
4 5 5 6 6 6 7 8 8 8 9 10 11 11 10 10 9 9 9 9 9 9 8 8 7 7 7 7 7 7 6 6 5 4 5 5 6 7 6 4 4 4 3
4 4 4 5 7 7 7 8 8 8 9 10 10 9 9 10 10 10 9 9 9 8 8 8 8 8 7 9 11 8 6 6 6 5 5 4 6 7 8 8 8 7 5
3 4 4 5 6 6 6 7 8 8 9 9 9 10 10 10 10 10 10 10 9 9 9 8 8 8 8 11 12 12 7 7 6 6 5 4 4 6 5 6 6 7 7
3 3 3 4 3 4 4 5 6 8 8 9 9 10 11 10 10 10 10 9 8 8 8 9 9 8 8 11 12 12 7 6 6 7 7 6 5 5 6 5 4 4 4
3 3 4 3 4 4 5 6 7 7 8 8 9 9 11 11 10 11 10 8 7 8 7 7 9 8 8 11 12 11 6 5 6 6 6 7 6 7 8 6 5 4 4
1 2 2 3 4 4 6 7 7 7 8 8 8 8 9 10 11 10 9 7 7 7 7 7 8 9 8 10 13 12 6 6 5 4 5 8 8 7 9 7 6 6 5
2 2 3 3 3 4 6 7 7 7 6 6 6 7 8 9 9 8 7 7 7 7 7 7 7 8 8 10 13 13 7 7 6 5 5 5 8 8 9 8 6 7 5
3 3 2 1 2 3 5 6 6 5 4 5 6 7 7 7 7 8 8 8 8 8 7 6 6 5 6 8 10 14 12 9 7 6 5 5 8 9 8 7 7 7 5
3 2 1 1 1 2 4 5 4 4 5 5 6 6 6 6 7 8 9 8 8 7 7 6 6 5 4 5 9 12 13 12 7 5 6 6 7 7 5 6 7 5 3
2 2 2 1 0 1 2 3 3 4 5 6 5 6 6 6 6 6 7 7 7 7 7 7 7 6 5 5 5 6 7 8 7 4 4 5 5 4 3 3 4 4 4
2 2 2 1 1 0 1 1 3 4 5 5 5 5 6 6 6 5 5 6 7 8 9 8 7 7 7 7 9 7 6 6 7 6 3 3 3 3 3 3 3 3 3
3 3 2 1 1 1 1 1 2 4 5 4 4 4 4 5 5 5 3 2 3 6 8 8 7 5 6 6 9 10 9 9 9 6 4 4 4 4 4 4 4 3 4
Wind_Direction
187 179 180 178 174 176 177 179 174 169 164 163 166 167 175 173 173 180 177 172 168 164 158 156 148 148 147 149 133 112 105 95 106 91 59 29 37 57 223 229 225 218 210
176 181 181 180 182 184 183 181 179 175 176 176 169 163 155 156 162 168 171 172 167 166 168 160 160 154 143 140 140 132 121 106 113 120 109 50 358 357 2 264 225 221 203
186 184 184 186 186 189 187 186 183 178 177 169 148 133 114 105 137 160 172 179 173 168 161 164 159 156 153 161 165 154 145 142 114 124 143 149 205 291 342 326 251 203 199
190 187 186 188 190 191 186 185 181 179 178 171 168 166 170 175 181 170 169 172 174 172 165 160 160 160 160 164 172 162 151 143 154 141 104 130 150 151 113 337 345 244 220
190 190 192 191 189 186 183 184 180 182 180 180 180 177 175 171 154 149 159 171 173 177 169 162 161 163 168 172 168 159 160 155 160 162 147 120 91 112 143 204 319 350 298
191 191 190 183 181 181 181 180 181 184 182 182 183 182 176 168 161 165 173 177 170 174 174 164 162 166 168 171 171 166 166 165 161 162 160 157 159 168 159 170 198 264 309
188 184 183 183 181 181 181 181 182 185 185 184 186 187 183 177 177 175 180 177 176 184 188 173 167 168 171 167 160 161 166 167 166 171 173 172 174 155 149 145 154 185 304
187 187 188 186 184 183 183 182 185 186 185 186 188 185 181 181 184 179 177 182 186 186 180 174 171 173 169 166 159 157 167 166 170 173 163 161 174 170 163 157 148 140 318
187 187 186 184 183 182 185 185 185 185 187 188 185 185 183 184 184 179 176 177 177 177 174 171 169 171 169 165 158 157 162 157 161 164 161 158 165 169 170 160 156 153 176
185 181 176 179 182 183 182 181 184 189 188 186 186 188 188 187 182 177 180 180 179 173 166 169 169 167 166 162 156 150 154 151 151 154 153 151 151 144 146 155 153 157 165
186 180 175 175 171 171 176 182 186 188 189 189 186 183 185 186 182 182 184 181 176 170 170 170 170 168 169 163 158 161 160 158 155 158 161 163 157 149 148 145 148 151 153
181 173 169 168 172 176 179 184 186 189 191 188 185 185 184 183 184 185 182 178 176 175 172 170 171 173 172 167 168 172 171 170 171 172 165 174 164 157 159 160 164 166 171
157 161 164 172 178 180 183 185 188 190 187 184 184 184 184 184 186 184 178 176 175 172 170 171 177 178 175 175 178 177 176 180 184 181 180 182 170 174 175 178 173 170 168
156 161 171 177 177 179 185 185 189 187 180 181 183 187 189 187 183 178 174 174 174 173 175 178 180 179 178 179 181 180 179 183 190 190 190 188 188 188 184 183 182 170 158
164 169 176 175 173 177 183 184 185 181 178 180 185 189 185 179 173 171 172 171 174 178 175 175 179 179 180 187 184 183 184 185 190 195 202 204 204 201 194 189 186 175 170
176 179 181 173 176 183 187 184 182 178 174 181 186 180 173 174 175 175 172 171 175 175 173 180 182 186 196 193 188 184 185 188 192 200 209 216 214 214 213 210 198 186 181
164 172 187 183 183 184 184 188 182 171 174 181 181 178 176 177 177 175 173 178 181 177 180 185 185 193 199 194 193 192 185 191 198 203 206 214 213 204 205 209 207 211 214
154 164 175 180 180 175 173 169 164 166 173 180 181 180 178 179 176 174 179 182 179 181 185 187 189 193 202 197 196 195 192 198 205 207 206 208 212 207 196 194 203 220 229
175 183 187 177 165 165 163 154 159 164 170 178 182 181 179 178 177 181 183 181 179 185 188 187 188 195 204 198 196 188 188 203 213 213 210 210 216 217 196 189 205 228 246
131 166 157 150 159 164 155 153 164 171 184 186 184 180 178 178 182 185 182 178 181 189 187 192 195 198 204 199 195 187 189 201 210 213 217 218 218 216 196 195 203 225 242
83 105 126 147 168 160 157 164 171 184 192 182 176 176 177 180 182 181 178 175 180 182 188 194 200 203 206 202 197 190 193 201 206 212 217 221 212 211 202 198 209 225 227
61 75 103 128 145 153 161 173 188 190 172 169 176 177 177 182 181 178 180 179 179 184 190 195 204 211 208 205 202 195 199 197 200 211 214 212 202 205 207 206 218 223 217
57 57 85 96 126 158 169 183 197 173 167 173 184 183 180 182 178 181 182 179 182 188 194 197 207 211 203 202 200 197 199 199 201 207 199 196 197 201 206 211 212 208 200
40 45 67 70 67 182 189 198 187 174 170 179 187 184 180 184 182 183 183 182 186 191 195 199 204 203 197 199 195 194 194 196 202 204 187 185 182 183 186 192 204 205 203
34 56 61 18 314 287 237 200 175 169 177 183 188 188 183 183 184 184 187 190 197 197 194 198 194 192 202 206 191 184 187 189 187 171 166 173 179 192 205 209 214 209 203
38 49 42 18 349 347 314 280 174 167 171 180 186 186 182 180 177 172 167 144 185 188 191 188 182 191 194 176 173 181 182 177 163 155 176 190 199 208 212 214 217 215 218